[Date Prev][Date Next][Thread Prev][Thread Next] - [Date Index][Thread Index][Author Index]

2 Line ISS Keps 10-26



ISS
1 25544U 98067A   04300.45101852  .00031184  00000-0  26102-3 0  9994
2 25544  51.6373  15.9864 0008639 280.2159 266.3859 15.69656084338938
----
Via the sarex mailing list at AMSAT.ORG courtesy of AMSAT-NA.
To unsubscribe, send "unsubscribe sarex" to Majordomo@amsat.org



AMSAT Top AMSAT Home